SWA1958 KTUS-KPSP

Flight info

Callsign SWA1958
Flight time 1h 0m
Altitude 36000
Route BURRO5 GBN KOFFA CURIV RDBUL1
Aircraft B738/M-SDE2E3FGHIRWXY/LB1

Departure

Time 2026-05-05 16:33
Airport Tucson International Airport (KTUS)

Arrival

Time 2026-05-05 17:34
Airport Palm Springs International Airport (KPSP)
Time Latitude Longitude Altitude Speed Heading
2026-05-05 15:25 32.11917 -110.93789 2588 ft 0 kts 74°
2026-05-05 16:21 32.11914 -110.93803 2590 ft 2 kts 69°
2026-05-05 16:22 32.11882 -110.93845 2588 ft 2 kts 21°
2026-05-05 16:22 32.11856 -110.93845 2583 ft 0 kts 315°
2026-05-05 16:23 32.11863 -110.93853 2590 ft 7 kts 316°
2026-05-05 16:23 32.11880 -110.93872 2588 ft 0 kts 316°
2026-05-05 16:24 32.11893 -110.93889 2592 ft 7 kts 308°
2026-05-05 16:24 32.11889 -110.93950 2589 ft 0 kts 227°
2026-05-05 16:27 32.11878 -110.93971 2591 ft 7 kts 252°
2026-05-05 16:27 32.11916 -110.94054 2584 ft 18 kts 316°
2026-05-05 16:27 32.12020 -110.94175 2589 ft 21 kts 315°
2026-05-05 16:27 32.12125 -110.94298 2583 ft 21 kts 315°
2026-05-05 16:28 32.12221 -110.94412 2577 ft 17 kts 315°
2026-05-05 16:28 32.12305 -110.94509 2578 ft 14 kts 315°
2026-05-05 16:28 32.12366 -110.94585 2569 ft 6 kts 312°
2026-05-05 16:28 32.12373 -110.94595 2570 ft 0 kts 307°
2026-05-05 16:29 32.12378 -110.94613 2570 ft 7 kts 280°
2026-05-05 16:29 32.12365 -110.94655 2572 ft 0 kts 233°
2026-05-05 16:31 32.12361 -110.94661 2572 ft 0 kts 228°
2026-05-05 16:32 32.12356 -110.94667 2570 ft 6 kts 227°
2026-05-05 16:32 32.12315 -110.94707 2573 ft 15 kts 203°
2026-05-05 16:32 32.12191 -110.94622 2579 ft 31 kts 135°
2026-05-05 16:33 32.11829 -110.94195 2592 ft 114 kts 135°
2026-05-05 16:33 32.11096 -110.93343 2719 ft 173 kts 136°
2026-05-05 16:33 32.10213 -110.92310 3580 ft 182 kts 137°
2026-05-05 16:33 32.09357 -110.91303 4742 ft 174 kts 140°
2026-05-05 16:34 32.08459 -110.90253 5325 ft 196 kts 141°
2026-05-05 16:34 32.07413 -110.89036 5550 ft 225 kts 141°
2026-05-05 16:34 32.06231 -110.87655 5788 ft 254 kts 140°
2026-05-05 16:34 32.04932 -110.86131 6424 ft 269 kts 140°
2026-05-05 16:35 32.03590 -110.84554 7258 ft 275 kts 140°
2026-05-05 16:35 32.02666 -110.83472 7788 ft 280 kts 140°
2026-05-05 16:35 32.01128 -110.82114 8680 ft 273 kts 163°
2026-05-05 16:35 31.99309 -110.81755 9583 ft 264 kts 189°
2026-05-05 16:36 31.97539 -110.82299 10374 ft 266 kts 208°
2026-05-05 16:36 31.95907 -110.83497 10623 ft 290 kts 217°
2026-05-05 16:36 31.94274 -110.85039 10962 ft 309 kts 226°
2026-05-05 16:36 31.93131 -110.87194 11729 ft 315 kts 246°
2026-05-05 16:37 31.92582 -110.89693 12641 ft 319 kts 261°
2026-05-05 16:37 31.92480 -110.92307 13585 ft 322 kts 267°
2026-05-05 16:37 31.92957 -110.94923 14365 ft 335 kts 285°
2026-05-05 16:37 31.94074 -110.97374 15150 ft 345 kts 297°
2026-05-05 16:38 31.95477 -110.99691 15919 ft 350 kts 299°
2026-05-05 16:38 31.96943 -111.01997 16636 ft 354 kts 300°
2026-05-05 16:38 31.98428 -111.04330 17365 ft 357 kts 299°
2026-05-05 16:38 31.99909 -111.06684 18118 ft 359 kts 299°
2026-05-05 16:39 32.01409 -111.09100 18764 ft 362 kts 298°
2026-05-05 16:39 32.02895 -111.11509 19435 ft 364 kts 297°
2026-05-05 16:39 32.04384 -111.13933 20077 ft 366 kts 297°
2026-05-05 16:39 32.05860 -111.16342 20669 ft 369 kts 296°
2026-05-05 16:40 32.07385 -111.18834 21281 ft 371 kts 296°
2026-05-05 16:40 32.08952 -111.21240 21866 ft 378 kts 300°
2026-05-05 16:40 32.10738 -111.23616 22431 ft 385 kts 302°
2026-05-05 16:40 32.12569 -111.25938 22993 ft 389 kts 302°
2026-05-05 16:41 32.14428 -111.28286 23484 ft 393 kts 302°
2026-05-05 16:41 32.16287 -111.30658 23949 ft 395 kts 302°
2026-05-05 16:41 32.18143 -111.33050 24418 ft 396 kts 301°
2026-05-05 16:41 32.20000 -111.35466 24856 ft 398 kts 301°
2026-05-05 16:42 32.21862 -111.37900 25274 ft 401 kts 301°
2026-05-05 16:42 32.23735 -111.40355 25687 ft 403 kts 300°
2026-05-05 16:42 32.25615 -111.42819 26097 ft 405 kts 300°
2026-05-05 16:42 32.27509 -111.45303 26486 ft 407 kts 300°
2026-05-05 16:43 32.29313 -111.47863 26879 ft 402 kts 295°
2026-05-05 16:43 32.30908 -111.50561 27265 ft 400 kts 292°
2026-05-05 16:44 32.35449 -111.58918 28458 ft 406 kts 291°
2026-05-05 16:44 32.36955 -111.61668 28833 ft 408 kts 291°
2026-05-05 16:44 32.38547 -111.64546 29204 ft 410 kts 291°
2026-05-05 16:44 32.40123 -111.67374 29562 ft 413 kts 291°
2026-05-05 16:45 32.41711 -111.70212 29891 ft 415 kts 291°
2026-05-05 16:45 32.43313 -111.73068 30181 ft 417 kts 291°
2026-05-05 16:45 32.44922 -111.75935 30450 ft 419 kts 291°
2026-05-05 16:45 32.46539 -111.78817 30725 ft 420 kts 291°
2026-05-05 16:46 32.48153 -111.81692 31126 ft 419 kts 291°
2026-05-05 16:46 32.49759 -111.84550 31612 ft 415 kts 290°
2026-05-05 16:46 32.51352 -111.87389 32081 ft 413 kts 290°
2026-05-05 16:46 32.52938 -111.90225 32462 ft 412 kts 290°
2026-05-05 16:47 32.54518 -111.93053 32861 ft 411 kts 290°
2026-05-05 16:47 32.56090 -111.95869 33281 ft 408 kts 290°
2026-05-05 16:47 32.57672 -111.98707 33669 ft 407 kts 289°
2026-05-05 16:47 32.59211 -112.01469 34006 ft 406 kts 289°
2026-05-05 16:48 32.60260 -112.03355 34211 ft 405 kts 289°
2026-05-05 16:48 32.62315 -112.07050 34598 ft 404 kts 289°
2026-05-05 16:48 32.63879 -112.09865 34896 ft 404 kts 289°
2026-05-05 16:48 32.65423 -112.12645 35182 ft 403 kts 289°
2026-05-05 16:49 32.66960 -112.15414 35508 ft 401 kts 290°
2026-05-05 16:49 32.68491 -112.18171 35847 ft 399 kts 290°
2026-05-05 16:49 32.70023 -112.20941 35971 ft 404 kts 290°
2026-05-05 16:49 32.71571 -112.23747 35941 ft 407 kts 290°
2026-05-05 16:50 32.74664 -112.29330 35929 ft 400 kts 290°
2026-05-05 16:50 32.77702 -112.34815 35934 ft 396 kts 289°
2026-05-05 16:51 32.80721 -112.40297 35940 ft 397 kts 289°
2026-05-05 16:51 32.83740 -112.45784 35959 ft 397 kts 289°
2026-05-05 16:52 32.86768 -112.51291 35969 ft 398 kts 289°
2026-05-05 16:52 32.89803 -112.56819 35995 ft 400 kts 289°
2026-05-05 16:53 32.92845 -112.62366 35977 ft 401 kts 289°
2026-05-05 16:53 32.95920 -112.67911 35958 ft 406 kts 293°
2026-05-05 16:54 32.99696 -112.73089 35961 ft 417 kts 298°
2026-05-05 16:54 33.03655 -112.78134 35965 ft 416 kts 298°
2026-05-05 16:55 33.07570 -112.83203 35937 ft 415 kts 298°
2026-05-05 16:55 33.11445 -112.88306 35940 ft 415 kts 297°
2026-05-05 16:56 33.15304 -112.93419 35932 ft 414 kts 297°
2026-05-05 16:56 33.19152 -112.98527 35929 ft 414 kts 297°
2026-05-05 16:57 33.23000 -113.03641 35920 ft 413 kts 297°
2026-05-05 16:57 33.26838 -113.08749 35923 ft 413 kts 297°
2026-05-05 16:58 33.30678 -113.13869 35927 ft 415 kts 297°
2026-05-05 16:58 33.34527 -113.19007 35923 ft 415 kts 297°
2026-05-05 16:59 33.38378 -113.24153 35925 ft 415 kts 297°
2026-05-05 16:59 33.42231 -113.29309 35918 ft 416 kts 297°
2026-05-05 17:00 33.45763 -113.34652 35917 ft 397 kts 287°
2026-05-05 17:00 33.48128 -113.40480 35922 ft 383 kts 278°
2026-05-05 17:01 33.49704 -113.46543 36006 ft 381 kts 275°
2026-05-05 17:01 33.51180 -113.52710 36024 ft 384 kts 275°
2026-05-05 17:02 33.52727 -113.58879 36017 ft 389 kts 276°
2026-05-05 17:02 33.54333 -113.65088 36017 ft 391 kts 276°
2026-05-05 17:03 33.55958 -113.71316 36013 ft 392 kts 276°
2026-05-05 17:03 33.57586 -113.77556 36004 ft 392 kts 276°
2026-05-05 17:04 33.59210 -113.83800 35980 ft 393 kts 276°
2026-05-05 17:04 33.60832 -113.90050 35950 ft 392 kts 276°
2026-05-05 17:05 33.62447 -113.96289 35935 ft 391 kts 276°
2026-05-05 17:05 33.64055 -114.02516 35911 ft 390 kts 276°
2026-05-05 17:06 33.65654 -114.08729 35932 ft 390 kts 276°
2026-05-05 17:06 33.67249 -114.14940 35928 ft 389 kts 276°
2026-05-05 17:07 33.68845 -114.21162 35911 ft 386 kts 276°
2026-05-05 17:07 33.69625 -114.24178 35902 ft 371 kts 276°
2026-05-05 17:07 33.70376 -114.27079 35907 ft 357 kts 276°
2026-05-05 17:08 33.71797 -114.32644 35213 ft 349 kts 275°
2026-05-05 17:08 33.72271 -114.34532 34872 ft 350 kts 274°
2026-05-05 17:08 33.72976 -114.37337 34317 ft 352 kts 274°
2026-05-05 17:09 33.73691 -114.40165 33903 ft 354 kts 275°
2026-05-05 17:09 33.74411 -114.43012 33259 ft 358 kts 277°
2026-05-05 17:09 33.75140 -114.45884 32653 ft 361 kts 278°
2026-05-05 17:09 33.75875 -114.48778 31987 ft 365 kts 278°
2026-05-05 17:10 33.76618 -114.51716 31312 ft 369 kts 278°
2026-05-05 17:10 33.77374 -114.54681 30632 ft 374 kts 279°
2026-05-05 17:10 33.78255 -114.57645 29980 ft 379 kts 282°
2026-05-05 17:10 33.79222 -114.60613 29209 ft 383 kts 283°
2026-05-05 17:11 33.80217 -114.63599 28450 ft 385 kts 284°
2026-05-05 17:11 33.81215 -114.66595 27710 ft 388 kts 285°
2026-05-05 17:11 33.82214 -114.69618 26964 ft 390 kts 285°
2026-05-05 17:11 33.83209 -114.72656 26263 ft 391 kts 286°
2026-05-05 17:12 33.84213 -114.75745 25554 ft 392 kts 286°
2026-05-05 17:12 33.85202 -114.78799 25124 ft 387 kts 287°
2026-05-05 17:12 33.86166 -114.81776 24878 ft 378 kts 287°
2026-05-05 17:12 33.87108 -114.84690 24635 ft 369 kts 287°
2026-05-05 17:13 33.88026 -114.87540 24325 ft 363 kts 287°
2026-05-05 17:13 33.88933 -114.90366 23935 ft 360 kts 288°
2026-05-05 17:13 33.89832 -114.93168 23534 ft 359 kts 288°
2026-05-05 17:13 33.90730 -114.95970 23041 ft 358 kts 288°
2026-05-05 17:14 33.91622 -114.98756 22601 ft 356 kts 288°
2026-05-05 17:14 33.92493 -115.01475 22191 ft 353 kts 288°
2026-05-05 17:14 33.93374 -115.04226 21773 ft 351 kts 288°
2026-05-05 17:14 33.94222 -115.06879 21364 ft 349 kts 288°
2026-05-05 17:15 33.95117 -115.09678 20922 ft 347 kts 288°
2026-05-05 17:15 33.95675 -115.12466 20497 ft 342 kts 271°
2026-05-05 17:15 33.95483 -115.15298 20053 ft 339 kts 259°
2026-05-05 17:15 33.95041 -115.18093 19604 ft 339 kts 257°
2026-05-05 17:16 33.94564 -115.20871 19182 ft 338 kts 257°
2026-05-05 17:16 33.94086 -115.23640 18779 ft 337 kts 257°
2026-05-05 17:16 33.93619 -115.26391 18389 ft 335 kts 257°
2026-05-05 17:16 33.93158 -115.29140 17968 ft 334 kts 258°
2026-05-05 17:17 33.92706 -115.31876 17497 ft 333 kts 258°
2026-05-05 17:17 33.92256 -115.34608 17130 ft 331 kts 258°
2026-05-05 17:17 33.91809 -115.37335 17058 ft 332 kts 258°
2026-05-05 17:17 33.91364 -115.40057 17047 ft 330 kts 258°
2026-05-05 17:18 33.90921 -115.42764 17040 ft 330 kts 258°
2026-05-05 17:18 33.90477 -115.45477 17041 ft 330 kts 258°
2026-05-05 17:18 33.90032 -115.48187 17041 ft 330 kts 258°
2026-05-05 17:18 33.89587 -115.50896 17036 ft 330 kts 258°
2026-05-05 17:19 33.89141 -115.53606 17044 ft 330 kts 258°
2026-05-05 17:19 33.88694 -115.56323 17019 ft 330 kts 258°
2026-05-05 17:19 33.88253 -115.58995 17012 ft 321 kts 258°
2026-05-05 17:19 33.87840 -115.61672 16244 ft 332 kts 263°
2026-05-05 17:20 33.87728 -115.64448 15521 ft 331 kts 270°
2026-05-05 17:20 33.87750 -115.67249 14804 ft 329 kts 271°
2026-05-05 17:20 33.87786 -115.69961 14114 ft 327 kts 271°
2026-05-05 17:20 33.87814 -115.72727 13377 ft 326 kts 270°
2026-05-05 17:21 33.87831 -115.75440 12626 ft 324 kts 270°
2026-05-05 17:21 33.87839 -115.78145 11947 ft 321 kts 270°
2026-05-05 17:21 33.87842 -115.80769 11548 ft 309 kts 270°
2026-05-05 17:22 33.87840 -115.85809 10680 ft 294 kts 270°
2026-05-05 17:22 33.87838 -115.88121 10285 ft 287 kts 270°
2026-05-05 17:22 33.87835 -115.90501 9891 ft 281 kts 270°
2026-05-05 17:22 33.87832 -115.92787 9567 ft 272 kts 270°
2026-05-05 17:23 33.87808 -115.95062 9111 ft 269 kts 264°
2026-05-05 17:23 33.87249 -115.97154 8892 ft 260 kts 243°
2026-05-05 17:23 33.86336 -115.99021 8719 ft 259 kts 239°
2026-05-05 17:23 33.85371 -116.00848 8560 ft 257 kts 239°
2026-05-05 17:24 33.84444 -116.02611 8421 ft 240 kts 239°
2026-05-05 17:24 33.83590 -116.04256 8262 ft 223 kts 239°
2026-05-05 17:24 33.82803 -116.05781 8124 ft 209 kts 240°
2026-05-05 17:24 33.82048 -116.07248 8010 ft 204 kts 240°
2026-05-05 17:25 33.81293 -116.08719 7776 ft 210 kts 240°
2026-05-05 17:25 33.80774 -116.09729 7623 ft 210 kts 240°
2026-05-05 17:25 33.79751 -116.11721 7304 ft 212 kts 240°
2026-05-05 17:25 33.78966 -116.13249 7050 ft 211 kts 240°
2026-05-05 17:26 33.78206 -116.14727 6820 ft 206 kts 240°
2026-05-05 17:26 33.77461 -116.16177 6546 ft 202 kts 240°
2026-05-05 17:26 33.76723 -116.17612 6305 ft 201 kts 240°
2026-05-05 17:26 33.75986 -116.19048 6051 ft 203 kts 240°
2026-05-05 17:27 33.75245 -116.20489 5804 ft 203 kts 240°
2026-05-05 17:27 33.74507 -116.21921 5568 ft 200 kts 240°
2026-05-05 17:27 33.73777 -116.23337 5319 ft 199 kts 240°
2026-05-05 17:27 33.73052 -116.24744 5076 ft 197 kts 240°
2026-05-05 17:28 33.72417 -116.26184 4801 ft 194 kts 257°
2026-05-05 17:28 33.72317 -116.27771 4594 ft 190 kts 268°
2026-05-05 17:28 33.72235 -116.29369 4348 ft 191 kts 267°
2026-05-05 17:28 33.72144 -116.30945 4103 ft 187 kts 269°
2026-05-05 17:29 33.72055 -116.32488 3879 ft 183 kts 269°
2026-05-05 17:29 33.71968 -116.33996 3669 ft 179 kts 269°
2026-05-05 17:29 33.71884 -116.35474 3468 ft 177 kts 269°
2026-05-05 17:29 33.72113 -116.36880 3244 ft 171 kts 298°
2026-05-05 17:30 33.72658 -116.38119 3061 ft 165 kts 296°
2026-05-05 17:30 33.73172 -116.39348 2879 ft 165 kts 296°
2026-05-05 17:30 33.73688 -116.40586 2676 ft 168 kts 296°
2026-05-05 17:30 33.74215 -116.41854 2479 ft 170 kts 296°
2026-05-05 17:31 33.74809 -116.43062 2223 ft 168 kts 315°
2026-05-05 17:31 33.75715 -116.43915 2078 ft 164 kts 321°
2026-05-05 17:31 33.76585 -116.44739 1861 ft 155 kts 320°
2026-05-05 17:31 33.77415 -116.45530 1710 ft 143 kts 321°
2026-05-05 17:32 33.78166 -116.46247 1477 ft 135 kts 322°
2026-05-05 17:32 33.78887 -116.46936 1303 ft 130 kts 323°
2026-05-05 17:32 33.79583 -116.47602 1127 ft 127 kts 323°
2026-05-05 17:32 33.80276 -116.48265 971 ft 128 kts 323°
2026-05-05 17:33 33.80983 -116.48939 783 ft 132 kts 323°
2026-05-05 17:33 33.81687 -116.49611 618 ft 127 kts 323°
2026-05-05 17:33 33.82384 -116.50249 417 ft 125 kts 326°
2026-05-05 17:33 33.83008 -116.50800 436 ft 92 kts 323°
2026-05-05 17:34 33.83254 -116.51018 440 ft 21 kts 323°
2026-05-05 17:34 33.83330 -116.51136 433 ft 18 kts 277°
2026-05-05 17:34 33.83292 -116.51198 441 ft 0 kts 193°
2026-05-05 17:34 33.83288 -116.51198 443 ft 6 kts 191°
2026-05-05 17:35 33.83209 -116.51193 436 ft 13 kts 153°
2026-05-05 17:35 33.83135 -116.51131 428 ft 13 kts 143°
2026-05-05 17:35 33.83062 -116.51059 431 ft 14 kts 144°
2026-05-05 17:35 33.82981 -116.50989 427 ft 14 kts 146°
2026-05-05 17:36 33.82920 -116.50938 435 ft 0 kts 145°
2026-05-05 17:36 33.82872 -116.50891 436 ft 17 kts 140°
2026-05-05 17:36 33.82774 -116.50797 426 ft 18 kts 144°
2026-05-05 17:37 33.82672 -116.50708 417 ft 18 kts 144°
2026-05-05 17:37 33.82609 -116.50690 429 ft 14 kts 204°
2026-05-05 17:37 33.82487 -116.50741 424 ft 15 kts 184°
2026-05-05 17:37 33.82396 -116.50747 420 ft 9 kts 202°
2026-05-05 17:38 33.82386 -116.50752 415 ft 0 kts 202°